[[{"header":{"parameterUnit":"m.s-1","parameterCategory":1,"la1":30.2992,"la2":30.254,"lo1":-89.0895,"lo2":-89.0443,"dy":0.0025,"dx":0.0025,"nx":19,"ny":19,"refTime":"2026-05-18T03:00:00:Z","depth":0,"parameterNumber":2,"parameterNumberName":"U-component_of_WINDS"},"data":[0,0,0,-4.8079,-4.8082,-4.8175,-4.8175,-4.8308,-4.831,0,0,0,0,0,0,0,0,0,0,0,-4.8061,-4.8063,-4.8079,-4.8082,-4.8175,-4.8175,-4.8308,-4.831,0,0,0,0,0,0,0,0,0,0,0,-4.8061,-4.8062,-4.8064,-4.8082,-4.8175,-4.8175,-4.8308,-4.8232,0,0,0,0,0,0,0,0,0,0,-4.8139,-4.8132,-4.8062,-4.8064,-4.8083,-4.8175,-4.8175,-4.8228,-4.8237,-4.8272,0,-4.8307,0,-4.8311,-4.8319,-4.832,0,0,0,-4.8074,-4.8125,-4.8142,-4.8064,-4.8084,-4.8175,-4.8131,-4.8233,-4.8243,-4.8284,-4.8309,-4.8314,-4.8313,-4.832,-4.8321,-4.8552,-4.8553,0,0,-4.8069,-4.8083,-4.8135,-4.8148,-4.8136,-4.8128,-4.8134,-4.8239,-4.8267,-4.831,-4.8316,-4.8315,-4.8321,-4.8322,-4.8551,-4.8552,0,0,0,-4.8059,-4.808,-4.8093,-4.8143,-4.8159,-4.8131,-4.8138,-4.8262,-4.8265,-4.8318,-4.8317,-4.8322,-4.8324,-4.8549,-4.8551,-4.8634,0,0,0,-4.8056,-4.8074,-4.8091,-4.8101,-4.8158,-4.8212,-4.8159,-4.8258,-4.8269,-4.8316,-4.8322,-4.8325,-4.8548,-4.855,-4.8628,-4.8669,0,0,0,-4.8052,-4.8073,-4.809,-4.8101,-4.8142,-4.821,-4.8219,-4.826,-4.8269,-4.832,-4.8326,-4.8546,-4.855,-4.8623,-4.8661,-4.8732,0,0,0,-4.8051,-4.8163,-4.8092,-4.8216,-4.8141,-4.8261,-4.8218,-4.8307,-4.8361,-4.8323,-4.8548,-4.8551,-4.8621,-4.8656,-4.8727,-4.8793,-4.8823,0,0,-4.8199,-4.8181,-4.8253,-4.8192,-4.8328,-4.8246,-4.8394,-4.843,-4.8422,-4.8509,-4.8514,-4.863,-4.866,-4.8731,-4.8988,-4.9012,0,0,0,-4.8304,-4.8356,-4.8389,-4.8441,-4.8472,-4.8501,-4.8513,-4.8526,-4.86,-4.847,-4.8676,-4.8694,-4.8735,-4.8765,-4.8785,-4.8818,-4.8567,-4.8566,-4.8566,-4.8531,-4.8516,-4.8633,-4.8629,-4.8681,-4.8692,-4.8732,-4.8751,-4.8721,-4.877,-4.8794,-4.8952,-4.8989,-4.9004,-4.9039,-4.8831,-4.8831,-4.8831,-4.8831,-4.8744,-4.8814,-4.8772,-4.887,-4.8853,-4.8935,-4.8951,-4.8927,-4.8999,-4.8933,-4.8968,-4.8893,-4.903,-4.906,-4.8838,-4.8836,-4.8836,-4.8835,-4.8835,-4.8889,-4.8919,-4.8935,-4.9008,-4.9066,-4.9058,-4.913,-4.9113,-4.9097,-4.9132,-4.9155,-4.9153,-4.9147,-4.9145,-4.9145,-4.9146,-4.9146,-4.9147,-4.9147,-4.9031,-4.9046,-4.9109,-4.9152,-4.9182,-4.9221,-4.9234,-4.9264,-4.9291,-4.9273,-4.9273,-4.9236,-4.9048,-4.8999,-4.9155,-4.9154,-4.9153,-4.9152,-4.9152,-4.9248,-4.9196,-4.9294,-4.9325,-4.9373,-4.9431,-4.9408,-4.947,-4.9492,-4.9527,-4.9485,-4.9349,-4.9328,-4.9312,-4.9271,-4.9489,-4.9489,-4.9489,-4.9489,-4.9368,-4.9357,-4.9451,-4.9502,-4.9549,-4.9539,-4.9648,-4.966,-4.9664,-4.9676,-4.9643,-4.9588,-4.9573,-4.9561,-4.954,-4.9501,-4.9773,-4.9773,-4.9773,-4.9499,-4.9491,-4.9587,-4.9591,-4.9628,-4.9659,-4.976,-4.9819,-4.9813,-4.9784,-4.9685,-4.9673,-4.9585,-4.9558,-4.9523,-4.9491,-4.942,0,0]},{"header":{"parameterUnit":"m.s-1","parameterCategory":1,"la1":30.2992,"la2":30.254,"lo1":-89.0895,"lo2":-89.0443,"dy":0.0025,"dx":0.0025,"nx":19,"ny":19,"refTime":"2026-05-18T03:00:00:Z","depth":0,"parameterNumber":3,"parameterNumberName":"V-component_of_WINDS"},"data":[0,0,0,2.9528,2.9531,2.9635,2.9635,2.977,2.9771,0,0,0,0,0,0,0,0,0,0,0,2.9498,2.9499,2.9528,2.9531,2.9635,2.9635,2.9769,2.9771,0,0,0,0,0,0,0,0,0,0,0,2.9498,2.9499,2.95,2.9531,2.9635,2.9635,2.9769,2.969,0,0,0,0,0,0,0,0,0,0,2.9589,2.9562,2.9499,2.95,2.9532,2.9634,2.9635,2.9686,2.9695,2.9723,0,2.9748,0,2.9762,2.978,2.978,0,0,0,2.953,2.9554,2.9582,2.95,2.9533,2.9634,2.9588,2.9691,2.9701,2.9735,2.975,2.9755,2.9764,2.9781,2.9781,2.9946,2.9947,0,0,2.9524,2.9517,2.9575,2.9588,2.9572,2.9584,2.9591,2.9697,2.9713,2.975,2.9758,2.9766,2.9782,2.9783,2.9946,2.9947,0,0,0,2.9508,2.9513,2.9538,2.9583,2.9601,2.9587,2.9595,2.9708,2.9717,2.976,2.9768,2.9782,2.9784,2.9945,2.9946,2.9979,0,0,0,2.9505,2.9504,2.9536,2.9532,2.96,2.9656,2.9604,2.971,2.9722,2.9767,2.9783,2.9785,2.9944,2.9945,2.9976,2.9996,0,0,0,2.9491,2.9502,2.9518,2.9532,2.9576,2.9655,2.967,2.9713,2.9727,2.9781,2.9786,2.9943,2.9945,2.9974,2.9992,3.0038,0,0,0,2.9474,2.9544,2.9518,2.9599,2.9575,2.9674,2.9669,2.9743,2.9793,2.9783,2.9944,2.9946,2.9973,2.9989,3.0035,3.0076,3.0092,0,0,2.9559,2.9554,2.9603,2.9582,2.9684,2.9659,2.9766,2.9818,2.983,2.9907,2.9911,2.9977,2.9991,3.0038,3.0184,3.0197,0,0,0,2.9627,2.9662,2.9691,2.9738,2.978,2.9818,2.9855,2.9874,2.9941,2.9868,3.0006,3.0015,3.0042,3.0062,3.0073,3.0098,2.9955,2.9954,2.9954,2.9735,2.9747,2.9829,2.9854,2.99,2.9938,2.9977,3.001,3.0007,3.004,3.0063,3.0151,3.0174,3.0182,3.0207,3.0085,3.0085,3.0086,3.0086,2.986,2.9912,2.9909,2.9987,3.0,3.0066,3.0106,3.0102,3.0166,3.0134,3.0159,3.0123,3.0196,3.0218,3.0088,3.0088,3.0088,3.0087,3.0087,2.9933,2.996,2.9983,3.0055,3.0108,3.0131,3.0193,3.0202,3.0211,3.0235,3.0261,3.0261,3.0262,3.0247,3.0247,3.0248,3.0248,3.0248,3.0248,2.9999,3.0025,3.0076,3.0128,3.016,3.0204,3.0245,3.0277,3.0316,3.0317,3.0317,3.0313,3.02,3.0172,3.0253,3.0252,3.0252,3.0251,3.0251,3.0122,3.0096,3.0175,3.0208,3.0271,3.0324,3.0336,3.0401,3.043,3.046,3.0451,3.0366,3.0362,3.0353,3.033,3.0447,3.0447,3.0447,3.0447,3.0184,3.0183,3.0267,3.0319,3.0371,3.039,3.048,3.0513,3.0543,3.0561,3.0546,3.0516,3.0506,3.0508,3.0496,3.0475,3.0626,3.0626,3.0626,3.0261,3.0266,3.034,3.0369,3.042,3.0463,3.0549,3.0609,3.0637,3.0633,3.0576,3.0569,3.052,3.0504,3.0498,3.0479,3.044,0,0]}]]